Time,TemperatureF,DewpointF,PressureIn,WindDirection,WindDirectionDegrees,WindSpeedMPH,WindSpeedGustMPH,Humidity,HourlyPrecipIn,Conditions,Clouds,dailyrainin,SolarRadiationWatts/m^2,SoftwareType,DateUTC
2013-02-13 00:00:00,21.4,19.2,29.92,SSW,202,0.0,0.0,91,0.00,,,0.00,0.00,VWS V14.01,2013-02-13 06:00:00,
2013-02-13 00:30:00,21.1,18.9,29.91,SSW,202,0.0,0.0,91,0.00,,,0.00,0.00,VWS V14.01,2013-02-13 06:30:00,
2013-02-13 01:00:00,20.9,19.0,29.90,SSW,202,0.0,0.0,92,0.00,,,0.00,0.00,VWS V14.01,2013-02-13 07:00:00,
2013-02-13 01:30:00,20.9,19.0,29.89,SSW,202,0.0,0.0,92,0.00,,,0.00,0.00,VWS V14.01,2013-02-13 07:30:00,
2013-02-13 02:00:00,20.8,18.9,29.89,SSW,202,0.0,0.0,92,0.00,,,0.00,0.00,VWS V14.01,2013-02-13 08:00:00,
2013-02-13 02:30:00,20.7,18.8,29.88,SSW,202,0.0,0.0,92,0.00,,,0.00,0.00,VWS V14.01,2013-02-13 08:30:00,
2013-02-13 03:00:00,20.9,19.0,29.87,SSW,202,0.0,0.0,92,0.00,,,0.00,0.00,VWS V14.01,2013-02-13 09:00:00,
2013-02-13 03:30:00,21.2,19.5,29.86,SSW,202,0.0,0.0,93,0.00,,,0.00,0.00,VWS V14.01,2013-02-13 09:30:00,
2013-02-13 04:00:00,22.2,20.5,29.85,SSW,202,0.0,0.0,93,0.00,,,0.00,0.00,VWS V14.01,2013-02-13 10:00:00,
2013-02-13 04:30:00,22.4,20.7,29.84,SSW,202,0.0,0.0,93,0.00,,,0.00,0.00,VWS V14.01,2013-02-13 10:30:00,
2013-02-13 05:00:00,22.6,20.9,29.82,SSW,202,0.0,0.0,93,0.00,,,0.00,0.00,VWS V14.01,2013-02-13 11:00:00,
2013-02-13 05:30:00,23.4,21.7,29.81,SSW,202,0.0,3.0,93,0.00,,,0.00,0.00,VWS V14.01,2013-02-13 11:30:00,
2013-02-13 06:00:00,24.1,22.4,29.80,SSW,202,1.0,5.0,93,0.00,,,0.00,0.00,VWS V14.01,2013-02-13 12:00:00,
2013-02-13 06:30:00,24.7,23.0,29.80,SSW,202,2.0,5.0,93,0.00,,,0.00,0.00,VWS V14.01,2013-02-13 12:30:00,
2013-02-13 07:00:00,24.8,23.1,29.80,South,180,2.0,5.0,93,0.00,,,0.00,3.00,VWS V14.01,2013-02-13 13:00:00,
2013-02-13 07:30:00,25.2,23.5,29.80,South,180,2.0,6.0,93,0.00,,,0.00,21.00,VWS V14.01,2013-02-13 13:30:00,
2013-02-13 08:00:00,27.2,25.5,29.79,South,180,1.0,5.0,93,0.00,,,0.00,58.00,VWS V14.01,2013-02-13 14:00:00,
2013-02-13 08:30:00,29.1,27.1,29.79,South,180,3.0,9.0,92,0.00,,,0.00,121.00,VWS V14.01,2013-02-13 14:30:00,
2013-02-13 09:00:00,31.0,28.1,29.80,South,180,4.0,11.0,89,0.00,,,0.00,192.00,VWS V14.01,2013-02-13 15:00:00,
2013-02-13 09:30:00,32.7,29.5,29.79,SSW,202,4.0,11.0,88,0.00,,,0.00,289.00,VWS V14.01,2013-02-13 15:30:00,
2013-02-13 10:00:00,35.0,30.4,29.79,South,180,5.0,11.0,83,0.00,,,0.00,340.00,VWS V14.01,2013-02-13 16:00:00,
2013-02-13 10:30:00,37.0,31.7,29.78,SSW,202,5.0,13.0,81,0.00,,,0.00,403.00,VWS V14.01,2013-02-13 16:30:00,
2013-02-13 11:00:00,38.5,32.9,29.78,SSW,202,6.0,14.0,80,0.00,,,0.00,447.00,VWS V14.01,2013-02-13 17:00:00,
2013-02-13 11:30:00,40.0,33.7,29.77,SSW,202,6.0,16.0,78,0.00,,,0.00,483.00,VWS V14.01,2013-02-13 17:30:00,
2013-02-13 12:00:00,41.9,34.6,29.74,South,180,5.0,14.0,75,0.00,,,0.00,509.00,VWS V14.01,2013-02-13 18:00:00,
2013-02-13 12:30:00,43.4,35.0,29.73,SSW,202,5.0,13.0,72,0.00,,,0.00,520.00,VWS V14.01,2013-02-13 18:30:00,
2013-02-13 13:00:00,44.8,35.3,29.72,SW,225,4.0,13.0,69,0.00,,,0.00,520.00,VWS V14.01,2013-02-13 19:00:00,
2013-02-13 13:30:00,46.0,35.7,29.70,SSW,202,5.0,15.0,67,0.00,,,0.00,501.00,VWS V14.01,2013-02-13 19:30:00,
2013-02-13 14:00:00,48.4,36.0,29.69,SW,227,0.0,11.0,62,0.01,,,0.00,374.00,VWS V14.01,2013-02-13 20:00:00,
2013-02-13 14:30:00,46.6,35.9,29.69,SW,221,0.0,11.0,66,0.00,,,0.00,257.00,VWS V14.01,2013-02-13 20:30:00,
2013-02-13 14:40:00,48.3,35.5,29.69,SSW,206,0.0,8.0,61,0.01,,,0.00,374.00,VWS V14.01,2013-02-13 20:40:00,
2013-02-13 14:46:00,48.3,36.3,29.69,SW,223,0.0,11.0,63,0.01,,,0.00,323.00,VWS V14.01,2013-02-13 20:46:00,
2013-02-13 14:52:00,48.4,35.6,29.69,SW,223,0.0,11.0,61,0.01,,,0.00,330.00,VWS V14.01,2013-02-13 20:52:00,
2013-02-13 14:58:00,48.6,36.6,29.69,SW,223,0.0,11.0,63,0.01,,,0.00,330.00,VWS V14.01,2013-02-13 20:58:00,
2013-02-13 15:00:00,48.4,36.0,29.69,SW,227,0.0,11.0,62,0.01,,,0.00,374.00,VWS V14.01,2013-02-13 21:00:00,
2013-02-13 15:04:00,48.6,36.2,29.70,SSW,198,0.0,9.0,62,0.00,,,0.00,315.00,VWS V14.01,2013-02-13 21:04:00,
2013-02-13 15:10:00,48.1,35.7,29.69,SSW,199,0.0,9.0,62,0.00,,,0.00,264.00,VWS V14.01,2013-02-13 21:10:00,
2013-02-13 15:16:00,47.8,35.8,29.70,SW,215,11.0,11.0,63,0.00,,,0.00,304.00,VWS V14.01,2013-02-13 21:16:00,
2013-02-13 15:22:00,47.4,35.5,29.69,SW,219,0.0,11.0,63,0.00,,,0.00,155.00,VWS V14.01,2013-02-13 21:22:00,
2013-02-13 15:28:00,46.8,35.7,29.69,SW,221,0.0,11.0,65,0.00,,,0.00,176.00,VWS V14.01,2013-02-13 21:28:00,
2013-02-13 15:30:00,46.6,35.9,29.69,SW,221,0.0,11.0,66,0.00,,,0.00,257.00,VWS V14.01,2013-02-13 21:30:00,
2013-02-13 15:34:00,46.8,36.0,29.69,SW,221,0.0,0.0,66,0.00,,,0.00,269.00,VWS V14.01,2013-02-13 21:34:00,
2013-02-13 15:40:00,47.2,36.4,29.69,SW,221,0.0,0.0,66,0.00,,,0.00,264.00,VWS V14.01,2013-02-13 21:40:00,
2013-02-13 15:46:00,47.2,36.0,29.69,SW,221,0.0,0.0,65,0.00,,,0.00,200.00,VWS V14.01,2013-02-13 21:46:00,
2013-02-13 15:52:00,46.8,36.0,29.69,SW,221,0.0,2.0,66,0.00,,,0.00,111.00,VWS V14.01,2013-02-13 21:52:00,
2013-02-13 15:58:00,46.4,35.7,29.69,SW,221,0.0,2.0,66,0.00,,,0.00,79.00,VWS V14.01,2013-02-13 21:58:00,
2013-02-13 16:00:00,46.2,35.9,29.69,SW,221,0.0,2.0,67,0.00,,,0.00,72.00,VWS V14.01,2013-02-13 22:00:00,
2013-02-13 16:04:00,45.9,35.6,29.70,SW,221,0.0,4.0,67,0.00,,,0.00,72.00,VWS V14.01,2013-02-13 22:04:00,
2013-02-13 16:10:00,45.4,35.5,29.70,SW,219,0.0,7.0,68,0.00,,,0.00,49.00,VWS V14.01,2013-02-13 22:10:00,
2013-02-13 16:16:00,45.0,35.5,29.70,SW,217,1.0,9.0,69,0.00,,,0.00,44.00,VWS V14.01,2013-02-13 22:16:00,
2013-02-13 16:22:00,44.5,35.3,29.70,SW,233,0.0,9.0,70,0.00,,,0.00,39.00,VWS V14.01,2013-02-13 22:22:00,
2013-02-13 16:30:00,45.0,35.8,29.70,SW,225,1.0,9.0,70,0.00,,,0.00,48.00,VWS V14.01,2013-02-13 22:30:00,
2013-02-13 17:00:00,43.7,35.3,29.71,SSW,202,0.0,5.0,72,0.00,,,0.00,32.00,VWS V14.01,2013-02-13 23:00:00,
2013-02-13 17:30:00,41.8,34.5,29.71,SSW,202,0.0,6.0,75,0.00,,,0.00,5.00,VWS V14.01,2013-02-13 23:30:00,
2013-02-13 18:00:00,40.0,33.4,29.72,SSW,202,0.0,0.0,77,0.00,,,0.00,0.00,VWS V14.01,2013-02-14 00:00:00,
2013-02-13 18:30:00,38.7,32.8,29.73,SSW,202,0.0,0.0,79,0.00,,,0.00,0.00,VWS V14.01,2013-02-14 00:30:00,
2013-02-13 19:00:00,37.2,32.2,29.73,SSW,202,0.0,0.0,82,0.00,,,0.00,0.00,VWS V14.01,2013-02-14 01:00:00,
2013-02-13 19:30:00,35.5,30.9,29.74,SSW,202,0.0,0.0,83,0.00,,,0.00,0.00,VWS V14.01,2013-02-14 01:30:00,
2013-02-13 20:00:00,34.0,30.0,29.74,SSW,202,0.0,0.0,85,0.00,,,0.00,0.00,VWS V14.01,2013-02-14 02:00:00,
2013-02-13 20:30:00,33.3,29.9,29.74,SSW,202,0.0,0.0,87,0.00,,,0.00,0.00,VWS V14.01,2013-02-14 02:30:00,
2013-02-13 21:00:00,32.9,29.7,29.74,SSW,202,0.0,0.0,88,0.00,,,0.00,0.00,VWS V14.01,2013-02-14 03:00:00,
2013-02-13 21:30:00,31.6,28.7,29.74,SSW,202,0.0,0.0,89,0.00,,,0.00,0.00,VWS V14.01,2013-02-14 03:30:00,
2013-02-13 22:00:00,31.2,28.6,29.74,SSW,202,0.0,0.0,90,0.00,,,0.00,0.00,VWS V14.01,2013-02-14 04:00:00,
2013-02-13 22:30:00,30.7,28.4,29.74,SSW,202,0.0,0.0,91,0.00,,,0.00,0.00,VWS V14.01,2013-02-14 04:30:00,
2013-02-13 23:00:00,31.2,28.9,29.73,SSW,202,0.0,0.0,91,0.00,,,0.00,0.00,VWS V14.01,2013-02-14 05:00:00,
2013-02-13 23:30:00,32.2,30.1,29.73,SSW,202,0.0,0.0,92,0.00,,,0.00,0.00,VWS V14.01,2013-02-14 05:30:00,